Location: Aulnoy
(48.8410°N, 3.0967°E)
Time: 01:09:14
(UTC+00:00)

Envisat - Pass Details

Date: 29 February 2024
Orbit: 762 x 764 km, 98.3° (Epoch: 12 April)

Event Time Altitude Azimuth Distance (km) Brightness Sun altitude
Rises 02:38:35 0° 20° (NNE) 3,242 6.9 -37.2°
Reaches altitude 10° 02:41:04 10° 29° (NNE) 2,310 6.1 -36.9°
Enters shadow 02:44:00 28° 56° (NE) 1,400 4.8 -36.5°
